Regional Weather Roundup
Issued by NWS Charleston, SC

Current Version | Previous Version | Graphics & Text | Print | Product List | Glossary On
Versions: 1 2 3 4 5 6 7 8 9 10 11 12 13 14 15 16 17 18 19 20 21 22 23 24 25 26 27 28 29 30 31 32 33 34 35 36 37 38 39 40 41 42 43 44 45 46 47 48 49 50
000
ASUS42 KCHS 232212
RWRCHS

REGIONAL WEATHER ROUNDUP
NATIONAL WEATHER SERVICE CHARLESTON SC
600 PM EDT TUE MAY 23 2017

NOTE: "FAIR" INDICATES FEW OR NO CLOUDS BELOW 12,000 FEET WITH NO
SIGNIFICANT WEATHER AND/OR OBSTRUCTIONS TO VISIBILITY.

NOT ALL STATIONS ARE QUALITY CONTROLLED. USE DATA WITH CAUTION...
ESPECIALLY DEWPOINT OBSERVATIONS.

SCZ027-030-031-034>040-042>050-232300-
...SOUTHEAST SOUTH CAROLINA...

CITY           SKY/WX    TMP DP  RH WIND       PRES   REMARKS
N CHARLESTON   TSTM      71  66  84 N8        29.75F
WATERFRONT PRK   N/A     72  71  97 CALM      29.73F
JOHNS ISLAND   CLOUDY    73  73 100 CALM      29.74F
PINOPOLIS        N/A     72  66  83 W5        29.68F
MONCKS CORNER  LGT RAIN  68  66  94 CALM      29.76F
SUMMERVILLE    LGT RAIN  70  68  94 CALM      29.77S
BEAUFORT MCAS  TSTM      72  71  97 N15       29.74S FOG
BEAUFORT ARPT  TSTM      73  72  94 SW6       29.75R
HILTON HEAD IS DRIZZLE   77  75  94 S14G22    29.75S
WALTERBORO     HVY RAIN  66  64  94 W3        29.79R
ALLENDALE      LGT RAIN  70  68  94 CALM      29.74R

...SOUTHERN MIDLANDS AND PEE DEE...

CITY           SKY/WX    TMP DP  RH WIND       PRES   REMARKS
GEORGETOWN     RAIN      70  70 100 CALM      29.78S
KINGSTREE      LGT RAIN N/A N/A N/A S3        29.76S
ORANGEBURG     LGT RAIN  70  68  93 SE6       29.74F
BARNWELL       MOCLDY    72  70  94 SE9       29.74R
AIKEN          CLOUDY    68  64  88 SE3       29.74S
MANNING        DRIZZLE   70  70 100 SW7       29.75F
COLUMBIA       LGT RAIN  71  67  87 S8        29.71F
SUMTER         NOT AVBL
FLORENCE       RAIN      72  71  97 SW10G20   29.75R
MYRTLE BEACH   LGT RAIN  72  68  88 SW9       29.77S
N MYRTLE BEACH CLOUDY    73  71  93 SW8       29.74F

$$

GAZ063-065-086>088-099>101-113>116-118-119-134>141-150-232300-
...SOUTHEAST GEORGIA...

CITY           SKY/WX    TMP DP  RH WIND       PRES   REMARKS
SAVANNAH ARPT  CLOUDY    73  68  84 W12       29.76R THUNDER
HUNTER AAF     NOT AVBL
FORT STEWART   NOT AVBL
STATESBORO     CLOUDY    68  68 100 SE6       29.75S
SYLVANIA       CLOUDY    69  69 100 SE7       29.74F
CLAXTON        LGT RAIN N/A N/A N/A NE3       29.75S

...CSRA...CENTRAL AND FAR SOUTHEAST GEORGIA...

CITY           SKY/WX    TMP DP  RH WIND       PRES   REMARKS
THOMSON        LGT RAIN  66  65  97 CALM      29.77F
AUGUSTA-BUSH   LGT RAIN  71  68  90 CALM      29.71S FOG
AUGUSTA-DANIEL LGT RAIN  69  64  84 CALM      29.72F
SWAINSBORO     TSTM      70  70 100 CALM      29.76R
VIDALIA        CLOUDY    72  70  94 S5        29.73S
EASTMAN        LGT RAIN  73  73 100 CALM      29.75F
HAZLEHURST     CLOUDY    73  73 100 S5        29.72F
ALMA           CLOUDY    74  72  93 CALM      29.73F
WAYCROSS       CLOUDY    80  78  92 SW9       29.74S
JESUP          FAIR      75  70  83 CALM      29.75F
BAXLEY         PTSUNNY   73  73 100 S5        29.72F
BRUNSWICK      TSTM      77  75  94 W13G18    29.76R
SAINT SIMONS   CLOUDY    81  72  74 S13G21    29.75S

$$

SCZ027-028-034-036>038-045-046-048>050-GAZ119-141-232300-
...LAKE AND SUPPLEMENTAL COASTAL OBSERVATIONS...

STATION/POSITION TIME  TEMP    WIND        PRES    WAVE   SWELL
                       AIR SEA DIR/SP/G            HT/PER HT/PER/DIR
                 (UTC) (F)     (DEG/KT/KT) (MB)    (FT/S) (FT/S/D)
WINYAH BAY       NOT AVBL
LAKE MURRAY      2120   71     190/  6/  8 1005.4
ACE BASIN NERRS  2045   75        CALM     1007.0
FORT PULASKI     2142   77     190/  7/ 12 1007.1S
SAPELO ISLAND    2100   78     200/  8     1008.0

$$

ANZ835-935-AMZ111-154-330-350-352-354-370-450-454-472-232300-
...C-MAN AND BUOY OBSERVATIONS...

STATION/POSITION TIME  TEMP    WIND        PRES    WAVE   SWELL
                       AIR SEA DIR/SP/G            HT/PER HT/PER/DIR
                 (UTC) (F)     (DEG/KT/KT) (MB)    (FT/S) (FT/S/D)
BUOY 41004       2150   77 78  210/ 19/ 25 1007.5F   5/ 6   2/200/12
BUOY 41008       2050   78 78  170/ 17/ 19 1007.2    4/ 5
FOLLY BEACH CMAN 2100   77     210/ 15/ 17 1008.3F
CAPERS NEARSHORE 2108   76 76  260/  8/ 12 1007.9S
FRIPP NEARSHORE  2108   77 78  200/ 19/ 25 1006.4F


STATION/POSITION TIME  TEMP    WIND        PRES    WAVE   SWELL
                       AIR SEA DIR/SP/G            HT/PER HT/PER/DIR
                 (UTC) (F)     (DEG/KT/KT) (MB)    (FT/S) (FT/S/D)
5E ST. MARYS GA  2130      79                N/A     3/ 5
FRYING PAN BUOY  2150   78 78  220/ 21/ 27 1007.5S   6/ 7   2/240/11
BUOY 41025       2150   76 76  190/ 23/ 27 1006.3F   6/ 5   2/120/ 9
CAPE LOOKOUT NC  2100   76     190/ 15/ 16 1006.5F
BUOY 41002       2050   77 76  200/ 17/ 21 1011.8    4/ 6   2/ 60/13
BUOY 41010       2150   80 79  190/ 14/ 16 1011.8F   4/ 6   2/ 50/ 8
ST AUGUSTINE FL  2200   86 79  240/  8/ 12 1009.5R


$$




USA.gov is the U.S. government's official web portal to all federal, state and local government web resources and services.